Flag for Spain Weather past 2 weeks in Granada, Spain

Now
55 °F

Refreshingly cool.


Feels Like: 55 °F
Forecast: 47 / 78 °F
Wind: 2 mph from Southeast

Location: Granada / Aeropuerto

Current Time: Apr 21, 2015 at 3:56:30 AM

Latest Report: Apr 21, 2015 at 3:00 AM


Visibility: 19 mi

Pressure: 30.08 "Hg

Humidity: 59%

Dew point: 41 °F

Location of GranadaLocation

Historic Weather in Granada — Graph

°F

Granada temperature yesterday

Maximum temperature yesterday: 77 °F (at 6:00 PM)
Minimum temperature yesterday: 41 °F (at 7:00 AM)
Average temperature yesterday: 58 °F

Past Weeks' High & Low Weather Summary

 TemperatureHumidityPressure
High80 °F (Apr 13, 5:00 PM)99% (Apr 12, 7:00 AM)30.28 "Hg (Apr 12, 7:00 AM)
Low40 °F (Apr 12, 8:00 AM)21% (Apr 13, 8:00 PM)29.86 "Hg (Apr 6, 2:00 AM)
Average58 °F67%30.08 "Hg
* Reported Apr 6 2:00 AM — Apr 21 2:00 AM, Granada, Weather by CustomWeather, © 2015

Note: Actual official high and low records may vary slightly from our data, if they occured in-between our weather recording intervals... More about our weather records

Advertising

Granada weather history for previous 24 hours

 ConditionsComfort  
Time TempWeatherWind HumidityBarometerVisibility
2:00 AM
Tue, Apr 21
53 °FCool.1 mph70%30.10 "Hg19 mi
1:00 AM54 °FCool.2 mph70%30.11 "Hg19 mi
12:00 AM58 °FCool.3 mph63%30.08 "Hg19 mi
11:00 PM
Mon, Apr 20
56 °FPassing clouds.2 mph69%30.09 "Hg19 mi
10:00 PM62 °FMild.3 mph55%30.03 "Hg19 mi
9:00 PM65 °FMild.12 mph52%29.99 "Hg19 mi
8:00 PM71 °FScattered clouds.15 mph47%29.95 "Hg19 mi
7:00 PM76 °FMild.13 mph39%29.93 "Hg19 mi
6:00 PM77 °FWarm.9 mph40%29.92 "Hg16 mi
5:00 PM75 °FPassing clouds.7 mph41%29.94 "Hg19 mi
4:00 PM75 °FMild.5 mph36%29.96 "Hg19 mi
3:00 PM74 °FPassing clouds.3 mph38%29.98 "Hg19 mi
2:00 PM73 °FPassing clouds.2 mph37%30.01 "Hg19 mi
1:00 PM69 °FMild.2 mph42%30.05 "Hg19 mi
12:00 PM64 °FMild.No wind42%30.09 "Hg17 mi
11:00 AM57 °FOvercast.No wind60%30.11 "Hg19 mi
10:00 AM51 °FCool.No wind70%30.13 "Hg19 mi
9:00 AM47 °FPartly sunny.No wind81%30.14 "Hg19 mi
8:00 AM41 °FOvercast.No wind89%30.14 "Hg19 mi
7:00 AM41 °FQuite cool.No wind88%30.13 "Hg19 mi
6:00 AM43 °FQuite cool.2 mph87%30.11 "Hg19 mi
5:00 AM43 °FQuite cool.2 mph86%30.11 "Hg17 mi
4:00 AM44 °FQuite cool.1 mph82%30.11 "Hg15 mi
3:00 AM47 °FCool.No wind79%30.11 "Hg19 mi
Weather by CustomWeather, © 2015

See weather overviewHow to use our weather pages